Grand Rapids, MI

10:52 AM EST on February 22, 2018 (GMT -0500)
Gerald R. Ford International

Weather History for KGRR - October, 2012

Change the Weather History Date:

Thursday, October 11, 2012

  Actual Average Record
Temperature  
Mean Temperature 48 °F 53 °F  
Max Temperature 62 °F 62 °F 85 °F (1928)
Min Temperature 34 °F 43 °F 25 °F (1906)
Degree Days  
Heating Degree Days 17 13  
Month to date heating degree days 149 121  
Since 1 July heating degree days 283 273  
Cooling Degree Days 0 0  
Month to date cooling degree days 2 4  
Year to date cooling degree days 1037 696  
Moisture  
Dew Point 36 °F    
Average Humidity 64    
Maximum Humidity 89    
Minimum Humidity 39    
Precipitation  
Precipitation 0.06 in 0.10 in 1.49 in (1912)
Month to date precipitation 0.89 1.20  
Year to date precipitation 25.08 30.20  
Snow  
Snow 0.00 in 0.10 in T in (1988)
Month to date snowfall T 0.1  
Since 1 July snowfall T 0.1  
Since 1 September snowfall T 0.1  
Snow Depth 0.00 in    
Sea Level Pressure  
Sea Level Pressure 30.11 in    
Wind  
Wind Speed 14 mph (SW)    
Max Wind Speed 35 mph    
Max Gust Speed 44 mph    
Visibility 10 miles    
Events Rain    
T = Trace of Precipitation, MM = Missing Value Source: NWS Daily Summary

Daily Weather History Graph

Daily Weather History Graph

Search for Another Location

Airport or City:

Trip Planner

Search our weather history database for the weather conditions in past years. The results will help you decide how hot, cold, wet, or windy it might be!

Date:

Astronomy

Oct. 11, 2012 Rise Set
Actual Time 7:51 AM EDT 7:05 PM EDT
Civil Twilight 7:22 AM EDT 7:33 PM EDT
Nautical Twilight 6:50 AM EDT 8:06 PM EDT
Astronomical Twilight 6:17 AM EDT 8:39 PM EDT
Moon 3:23 AM EDT (10/11) 4:46 PM EDT (10/11)
Length of Visible Light 12h 10m
Length of Day
11h 13m
Waning Crescent, 18% of the Moon is Illuminated
Oct 11
Waning Crescent
Oct 15
New
Oct 21
First Quarter
Oct 29
Full
Nov 6
Last Quarter

Hourly Weather History & Observations

Time (EDT) Temp. Windchill Dew Point Humidity Pressure Visibility Wind Dir Wind Speed Gust Speed Precip Events Conditions
12:53 AM 37.0 °F 31.6 °F 30.9 °F 79% 30.17 in 10.0 mi SSE 6.9 mph - N/A   Overcast
1:53 AM 37.0 °F 32.4 °F 32.0 °F 82% 30.17 in 10.0 mi South 5.8 mph - N/A   Overcast
2:53 AM 36.0 °F 29.6 °F 32.0 °F 86% 30.16 in 10.0 mi SSE 8.1 mph - N/A   Mostly Cloudy
3:53 AM 34.0 °F 25.5 °F 30.9 °F 89% 30.14 in 10.0 mi South 11.5 mph - N/A   Partly Cloudy
4:53 AM 37.0 °F 29.8 °F 30.9 °F 79% 30.14 in 10.0 mi South 10.4 mph - N/A   Partly Cloudy
5:53 AM 37.0 °F 29.8 °F 30.9 °F 79% 30.14 in 10.0 mi South 10.4 mph - N/A   Scattered Clouds
6:53 AM 37.0 °F 29.3 °F 30.9 °F 79% 30.13 in 10.0 mi South 11.5 mph - N/A   Scattered Clouds
7:53 AM 39.0 °F 32.3 °F 30.0 °F 70% 30.11 in 10.0 mi South 10.4 mph - N/A   Partly Cloudy
8:53 AM 43.0 °F 35.4 °F 28.9 °F 58% 30.12 in 10.0 mi SSW 16.1 mph 23.0 mph N/A   Scattered Clouds
9:53 AM 46.9 °F - 32.0 °F 56% 30.10 in 10.0 mi SSW 17.3 mph 25.3 mph N/A   Scattered Clouds
10:53 AM 51.1 °F - 36.0 °F 56% 30.10 in 10.0 mi SW 15.0 mph 25.3 mph N/A   Mostly Cloudy
11:53 AM 55.9 °F - 37.0 °F 49% 30.07 in 10.0 mi SW 20.7 mph 31.1 mph N/A   Mostly Cloudy
12:53 PM 60.1 °F - 37.0 °F 42% 30.05 in 10.0 mi WSW 23.0 mph 35.7 mph N/A   Mostly Cloudy
1:53 PM 60.1 °F - 37.9 °F 44% 30.02 in 10.0 mi WSW 26.5 mph 38.0 mph N/A   Scattered Clouds
2:53 PM 60.1 °F - 37.0 °F 42% 30.03 in 10.0 mi WSW 32.2 mph 39.1 mph N/A   Mostly Cloudy
3:53 PM 61.0 °F - 39.0 °F 44% 30.03 in 10.0 mi WSW 21.9 mph 32.2 mph N/A   Scattered Clouds
4:53 PM 60.1 °F - 37.9 °F 44% 30.03 in 10.0 mi WSW 21.9 mph 36.8 mph N/A   Scattered Clouds
5:53 PM 60.8 °F - 35.6 °F 39% 30.02 in 10.0 mi West 19.6 mph 26.5 mph N/A   Mostly Cloudy
6:08 PM 53.6 °F - 41.0 °F 62% 30.04 in 10.0 mi NW 15.0 mph - N/A   Overcast
6:53 PM 53.6 °F - 39.2 °F 58% 30.06 in 10.0 mi NNW 15.0 mph 20.7 mph N/A   Mostly Cloudy
7:53 PM 50.0 °F - 42.1 °F 74% 30.12 in 10.0 mi North 9.2 mph - 0.00 in Rain Light Rain
8:53 PM 46.4 °F 41.9 °F 42.8 °F 87% 30.13 in 9.0 mi North 9.2 mph - N/A Rain Light Rain
9:53 PM 46.0 °F 43.1 °F 42.1 °F 86% 30.17 in 8.0 mi NNW 5.8 mph - 0.02 in Rain Light Rain
10:53 PM 46.0 °F 42.5 °F 39.9 °F 79% 30.20 in 9.0 mi NNW 6.9 mph - 0.02 in Rain Light Rain
11:53 PM 46.0 °F 42.5 °F 39.0 °F 76% 30.21 in 10.0 mi NW 6.9 mph - 0.01 in Rain Light Rain